Mount Holly, NJ

11:03 AM EST on December 06, 2019 (GMT -0500)
South Jersey Regional

Weather History for KVAY - August, 2019

Change the Weather History Date:

Wednesday, August 7, 2019

  Actual Average (KPNE) Record (KPNE)
Temperature  
Mean Temperature 78 °F -  
Max Temperature 91 °F 83 °F 99 °F (2001)
Min Temperature 66 °F 65 °F 55 °F (1997)
Cooling Degree Days 14    
Growing Degree Days 28 (Base 50)    
Moisture  
Dew Point 70 °F    
Average Humidity 86    
Maximum Humidity 100    
Minimum Humidity 53    
Precipitation  
Precipitation 1.80 in - - ()
Sea Level Pressure  
Sea Level Pressure 29.79 in    
Wind  
Wind Speed 4 mph (NE)    
Max Wind Speed 22 mph    
Max Gust Speed 37 mph    
Visibility 6 miles    
Events Fog , Rain , Thunderstorm    
Averages and records for this station are not official NWS values.
T = Trace of Precipitation, MM = Missing Value Source: NWS Daily Summary

Daily Weather History Graph

Daily Weather History Graph

Search for Another Location

Airport or City:

Astronomy

Aug. 07, 2019 Rise Set
Actual Time 6:03 AM EDT 8:06 PM EDT
Civil Twilight 5:33 AM EDT 8:36 PM EDT
Nautical Twilight 4:57 AM EDT 9:12 PM EDT
Astronomical Twilight 4:17 AM EDT 9:51 PM EDT
Moon 1:32 PM EDT (8/7) No Moon Set
Length of Visible Light 15h 02m
Length of Day
14h 03m
Waxing Crescent, 49% of the Moon is Illuminated
Aug 7
Waxing Crescent
Aug 7
First Quarter
Aug 15
Full
Aug 23
Last Quarter
Aug 30
New

Hourly Weather History & Observations

Time (EDT) Temp. Heat Index Dew Point Humidity Pressure Visibility Wind Dir Wind Speed Gust Speed Precip Events Conditions
12:54 AM 73.0 °F - 70.0 °F 90% 29.84 in 10.0 mi Variable 3.5 mph - N/A   Clear
1:54 AM 73.0 °F - 70.0 °F 90% 29.83 in 9.0 mi Calm Calm - N/A   Clear
2:54 AM 73.0 °F - 70.0 °F 90% 29.82 in 8.0 mi Calm Calm - N/A   Clear
3:54 AM 72.0 °F - 70.0 °F 93% 29.82 in 8.0 mi Calm Calm - N/A   Clear
4:54 AM 72.0 °F - 70.0 °F 93% 29.82 in 7.0 mi Calm Calm - N/A   Clear
5:52 AM 71.6 °F - 69.8 °F 94% 29.83 in 5.0 mi Calm Calm - N/A   Mostly Cloudy
5:54 AM 72.0 °F - 70.0 °F 93% 29.83 in 5.0 mi Calm Calm - N/A   Mostly Cloudy
6:16 AM 72.0 °F - 70.0 °F 93% 29.84 in 6.0 mi Calm Calm - N/A   Overcast
6:54 AM 73.0 °F - 71.1 °F 93% 29.84 in 6.0 mi Calm Calm - N/A   Overcast
7:36 AM 73.9 °F - 71.1 °F 91% 29.83 in 10.0 mi Calm Calm - N/A   Scattered Clouds
7:54 AM 75.0 °F - 71.1 °F 87% 29.83 in 10.0 mi Calm Calm - N/A   Clear
8:54 AM 79.0 °F - 73.9 °F 84% 29.83 in 10.0 mi Variable 3.5 mph - N/A   Clear
9:13 AM 80.1 °F 84.5 °F 73.9 °F 81% 29.83 in 10.0 mi Calm Calm - N/A   Mostly Cloudy
9:39 AM 82.0 °F 88.6 °F 75.0 °F 79% 29.82 in 10.0 mi Variable 5.8 mph - N/A   Scattered Clouds
9:47 AM 82.0 °F 87.9 °F 73.9 °F 76% 29.82 in 10.0 mi Variable 4.6 mph - N/A   Mostly Cloudy
9:54 AM 81.0 °F 85.8 °F 73.0 °F 77% 29.82 in 10.0 mi Variable 3.5 mph - N/A   Scattered Clouds
10:04 AM 82.0 °F 87.9 °F 73.9 °F 76% 29.83 in 10.0 mi Variable 3.5 mph - N/A   Mostly Cloudy
10:35 AM 82.9 °F 89.4 °F 73.9 °F 74% 29.82 in 10.0 mi Variable 4.6 mph - N/A   Scattered Clouds
10:54 AM 84.0 °F 91.2 °F 73.9 °F 72% 29.82 in 10.0 mi Calm Calm - N/A   Scattered Clouds
11:54 AM 87.1 °F 95.4 °F 73.9 °F 65% 29.81 in 10.0 mi SSW 3.5 mph - N/A   Scattered Clouds
12:54 PM 88.0 °F 96.5 °F 73.9 °F 63% 29.79 in 10.0 mi Variable 5.8 mph - N/A   Scattered Clouds
1:31 PM 89.1 °F 97.0 °F 73.0 °F 59% 29.76 in 10.0 mi Variable 6.9 mph 18.4 mph N/A Thunderstorm Partly Cloudy
1:54 PM 91.0 °F 98.2 °F 72.0 °F 53% 29.74 in 10.0 mi Variable 4.6 mph - N/A   Partly Cloudy
2:54 PM 88.0 °F 92.1 °F 69.1 °F 53% 29.72 in 10.0 mi Variable 4.6 mph - N/A   Mostly Cloudy
3:54 PM 89.1 °F 94.1 °F 70.0 °F 53% 29.70 in 10.0 mi South 9.2 mph - N/A Thunderstorm Scattered Clouds
4:17 PM 75.0 °F - 71.1 °F 87% 29.71 in 0.8 mi East 8.1 mph - 0.24 in Rain Heavy Rain
4:20 PM 75.9 °F - 73.0 °F 91% 29.71 in 1.2 mi SE 6.9 mph - 0.24 in Rain Rain
4:23 PM 77.0 °F - 73.9 °F 90% 29.71 in 2.0 mi Variable 4.6 mph - 0.24 in Rain , Thunderstorm Light Rain
4:30 PM 79.0 °F - 73.9 °F 84% 29.71 in 10.0 mi Variable 4.6 mph - 0.24 in Thunderstorm Scattered Clouds
4:54 PM 78.1 °F - 69.1 °F 74% 29.74 in 10.0 mi Variable 6.9 mph - 0.24 in Thunderstorm Mostly Cloudy
5:04 PM 75.9 °F - 69.1 °F 79% 29.74 in 10.0 mi North 5.8 mph - N/A   Overcast
5:47 PM 73.9 °F - 66.9 °F 79% 29.73 in 10.0 mi NNE 11.5 mph - N/A Thunderstorm Overcast
5:54 PM 73.9 °F - 68.0 °F 82% 29.77 in 10.0 mi West 11.5 mph 17.3 mph N/A Thunderstorm Mostly Cloudy
6:03 PM 73.0 °F - 68.0 °F 84% 29.78 in 2.5 mi NW 21.9 mph 27.6 mph 0.09 in Rain , Thunderstorm Light Thunderstorms and Rain
6:05 PM 72.0 °F - 68.0 °F 87% 29.78 in 1.8 mi NNW 21.9 mph 31.1 mph 0.15 in Rain , Thunderstorm Heavy Thunderstorms and Rain
6:09 PM 70.0 °F - 68.0 °F 93% 29.79 in 0.8 mi NNW 19.6 mph 36.8 mph 0.33 in Rain , Thunderstorm Heavy Thunderstorms and Rain
6:27 PM 70.0 °F - 68.0 °F 93% 29.77 in 1.2 mi North 16.1 mph 26.5 mph 0.81 in Rain , Thunderstorm Heavy Thunderstorms and Rain
6:33 PM 70.0 °F - 68.0 °F 93% 29.79 in 3.0 mi North 13.8 mph 26.5 mph 0.83 in Rain , Thunderstorm Light Thunderstorms and Rain
6:39 PM 70.0 °F - 68.0 °F 93% 29.83 in 5.0 mi WSW 11.5 mph 20.7 mph 0.86 in Rain , Thunderstorm Light Thunderstorms and Rain
6:41 PM 70.0 °F - 68.0 °F 93% 29.84 in 2.5 mi WSW 10.4 mph 20.7 mph 0.94 in Rain , Thunderstorm Light Thunderstorms and Rain
6:46 PM 70.0 °F - 68.0 °F 93% 29.83 in 1.0 mi Variable 5.8 mph 18.4 mph 1.09 in Rain , Thunderstorm Heavy Thunderstorms and Rain
6:54 PM 69.1 °F - 66.9 °F 93% 29.81 in 0.8 mi NNW 4.6 mph - 1.23 in Rain , Thunderstorm Heavy Thunderstorms and Rain
6:58 PM 69.1 °F - 66.9 °F 93% 29.81 in 1.2 mi NNE 6.9 mph - 0.02 in Rain , Thunderstorm Heavy Thunderstorms and Rain
7:03 PM 69.1 °F - 66.9 °F 93% 29.80 in 3.0 mi NE 6.9 mph - 0.03 in Rain , Thunderstorm Rain
7:43 PM 69.1 °F - 68.0 °F 96% 29.82 in 2.5 mi East 4.6 mph - 0.10 in Rain , Thunderstorm Rain
7:54 PM 69.1 °F - 68.0 °F 96% 29.82 in 3.0 mi East 4.6 mph - 0.13 in Rain , Thunderstorm Rain
8:04 PM 69.1 °F - 68.0 °F 96% 29.82 in 3.0 mi ESE 4.6 mph - 0.04 in Rain Rain
8:14 PM 69.1 °F - 68.0 °F 96% 29.82 in 3.0 mi SE 4.6 mph - 0.09 in Rain , Thunderstorm Rain
8:43 PM 69.1 °F - 68.0 °F 96% 29.80 in 4.0 mi SE 4.6 mph - 0.19 in Rain Light Rain
8:54 PM 69.1 °F - 68.0 °F 96% 29.80 in 6.0 mi ESE 3.5 mph - 0.20 in Rain Light Rain
9:54 PM 69.1 °F - 66.9 °F 93% 29.78 in 8.0 mi Calm Calm - 0.00 in   Partly Cloudy
10:12 PM 69.1 °F - 68.0 °F 96% 29.77 in 7.0 mi Calm Calm - N/A   Mostly Cloudy
10:24 PM 71.1 °F - 66.9 °F 87% 29.77 in 8.0 mi Calm Calm - N/A   Scattered Clouds
10:50 PM 68.0 °F - 66.2 °F 94% 29.77 in 1.8 mi Calm Calm - N/A   Clear
10:54 PM 68.0 °F - 66.9 °F 96% 29.78 in 1.5 mi Calm Calm - N/A   Clear
11:03 PM 68.0 °F - 66.9 °F 96% 29.78 in 1.0 mi Calm Calm - N/A   Mist
11:14 PM 68.0 °F - 66.0 °F 93% 29.78 in 1.8 mi Calm Calm - N/A   Scattered Clouds
11:22 PM 68.0 °F - 66.9 °F 96% 29.78 in 1.0 mi Calm Calm - N/A   Mist
11:30 PM 66.9 °F - 66.0 °F 97% 29.78 in 0.2 mi Calm Calm - N/A Fog Fog
11:48 PM 66.2 °F - 66.2 °F 100% 29.79 in 1.2 mi Calm Calm - N/A   Overcast
11:54 PM 66.9 °F - 66.0 °F 97% 29.79 in 1.2 mi Calm Calm - N/A   Mostly Cloudy